EW8125 Weather Reports


Display with metric or nautical units.
time (UTC)temp
F
wind
direction
speed
MPH
gust
MPH
rain 1hr
in
rain 24hr
in
rain mn
in
humidity
%
barometer
mb
20260505170903 56 0 0.0 0.0 0.00 0.00 0.00 73 1013.2
20260505170603 56 0 0.0 0.0 0.00 0.00 0.00 73 1013.1
20260505170513 56 0 0.0 0.0 0.00 0.00 0.00 72 1013.1
20260505170003 56 194 0.0 1.0 0.00 0.00 0.00 72 1013.2
20260505165703 56 194 0.0 1.0 0.00 0.00 0.00 73 1013.1
20260505165403 56 0 0.0 0.0 0.00 0.00 0.00 71 1013.1
20260505165103 56 237 0.0 1.0 0.00 0.00 0.00 68 1013.2
20260505164803 57 237 0.0 1.0 0.00 0.00 0.00 67 1013.1
20260505164503 57 237 0.0 1.0 0.00 0.00 0.00 67 1013.2
20260505164204 57 236 0.0 1.0 0.00 0.00 0.00 67 1013.1
20260505164114 58 236 0.0 1.0 0.00 0.00 0.00 67 1013.1
20260505163813 58 236 0.0 1.0 0.00 0.00 0.00 67 1013.1
20260505163303 59 236 0.0 1.0 0.00 0.00 0.00 65 1013.2
20260505163003 59 237 0.0 1.0 0.00 0.00 0.00 67 1013.1
20260505162703 59 237 0.0 1.0 0.00 0.00 0.00 65 1013.1
20260505162403 59 210 0.0 1.0 0.00 0.00 0.00 65 1013.1
20260505162103 59 208 0.0 1.0 0.00 0.00 0.00 65 1013.1
20260505161803 59 216 0.0 1.0 0.00 0.00 0.00 65 1013.1
20260505161503 60 216 0.0 1.0 0.00 0.00 0.00 66 1013.1
20260505161203 60 231 0.0 1.0 0.00 0.00 0.00 64 1013.1
20260505160903 60 231 0.0 1.0 0.00 0.00 0.00 62 1013.1
20260505160603 61 231 0.0 1.0 0.00 0.00 0.00 61 1013.1
20260505160303 61 231 0.0 1.0 0.00 0.00 0.00 60 1013.1
20260505153303 63 107 0.0 2.0 0.00 0.00 0.00 59 1013.4
20260505153003 62 81 0.0 2.0 0.00 0.00 0.00 60 1013.3
20260505152913 62 99 0.0 2.0 0.00 0.00 0.00 57 1013.4
20260505152403 62 65 0.0 2.0 0.00 0.00 0.00 62 1013.4
20260505152103 62 109 0.0 1.0 0.00 0.00 0.00 63 1013.3
20260505151803 61 108 0.0 1.0 0.00 0.00 0.00 61 1013.4
20260505151503 61 120 0.0 2.0 0.00 0.00 0.00 63 1013.3
20260505151203 61 124 0.0 2.0 0.00 0.00 0.00 63 1013.4
20260505150903 61 116 0.0 2.0 0.00 0.00 0.00 60 1013.3
20260505150603 61 108 0.0 2.0 0.00 0.00 0.00 60 1013.4
20260505150303 61 93 0.0 2.0 0.00 0.00 0.00 60 1013.4
20260505140603 62 164 0.0 2.0 0.00 0.00 0.00 65 1013.6
20260505140303 62 140 0.0 3.0 0.00 0.00 0.00 66 1013.5
20260505124803 63 265 0.0 4.0 0.00 0.00 0.00 62 1013.6
20260505124713 63 145 0.0 2.0 0.00 0.00 0.00 62 1013.6
20260505124203 63 312 0.0 1.0 0.00 0.00 0.00 62 1013.7
20260505123903 63 351 0.0 1.0 0.00 0.00 0.00 60 1013.8
20260505123605 63 321 0.0 1.0 0.00 0.00 0.00 59 1013.7
20260505123303 63 87 0.0 1.0 0.00 0.00 0.00 59 1013.8
20260505123213 63 80 0.0 1.0 0.00 0.00 0.00 62 1013.7
20260505122703 62 131 0.0 1.0 0.00 0.00 0.00 62 1013.7
20260505122403 62 253 0.0 1.0 0.00 0.00 0.00 62 1013.7
20260505122103 62 267 0.0 1.0 0.00 0.00 0.00 63 1013.7
20260505121803 61 132 0.0 2.0 0.00 0.00 0.00 65 1013.7
20260505121504 61 101 0.0 3.0 0.00 0.00 0.00 64 1013.7
20260505121203 61 81 0.0 3.0 0.00 0.00 0.00 63 1013.8
20260505120903 60 50 0.0 3.0 0.00 0.00 0.00 65 1013.7
20260505120603 60 27 0.0 2.0 0.00 0.00 0.00 65 1013.7
20260505120303 60 21 1.0 2.0 0.00 0.00 0.00 63 1013.7
20260505120004 60 53 0.0 2.0 0.00 0.00 0.00 62 1013.7
20260505115913 60 3 0.0 2.0 0.00 0.00 0.00 62 1013.7
20260505115403 60 267 0.0 1.0 0.00 0.00 0.00 66 1013.8
20260505115103 60 262 0.0 1.0 0.00 0.00 0.00 63 1013.7
20260505114803 60 256 0.0 1.0 0.00 0.00 0.00 63 1013.7
20260505114712 60 256 0.0 1.0 0.00 0.00 0.00 62 1013.7
20260505114203 60 153 0.0 1.0 0.00 0.00 0.00 62 1013.7
20260505113903 60 161 0.0 1.0 0.00 0.00 0.00 62 1013.7
20260505113603 61 241 0.0 2.0 0.00 0.00 0.00 61 1013.7
20260505113303 60 237 0.0 2.0 0.00 0.00 0.00 61 1013.7
20260505113213 60 237 0.0 2.0 0.00 0.00 0.00 61 1013.7
20260505112703 60 106 0.0 2.0 0.00 0.00 0.00 66 1013.6
20260505112403 59 166 0.0 2.0 0.00 0.00 0.00 62 1013.7
20260505112103 59 173 0.0 2.0 0.00 0.00 0.00 60 1013.7
20260505111803 60 132 0.0 2.0 0.00 0.00 0.00 62 1013.7
20260505111503 60 113 0.0 2.0 0.00 0.00 0.00 59 1013.7
20260505111204 60 71 0.0 2.0 0.00 0.00 0.00 60 1013.7
20260505110903 61 21 0.0 2.0 0.00 0.00 0.00 57 1013.7
20260505110605 61 305 0.0 2.0 0.00 0.00 0.00 59 1013.7
20260505110303 62 305 0.0 2.0 0.00 0.00 0.00 58 1013.8
20260505102103 61 89 1.0 4.0 0.00 0.00 0.00 59 1014.1
20260505101803 61 84 1.0 4.0 0.00 0.00 0.00 56 1014.0
20260505101714 62 68 0.0 3.0 0.00 0.00 0.00 56 1014.0
20260505101203 62 119 0.0 3.0 0.00 0.00 0.00 63 1014.1
20260505100903 62 116 0.0 3.0 0.00 0.00 0.00 59 1014.2
20260505100603 62 96 0.0 4.0 0.00 0.00 0.00 58 1014.1
20260505100303 62 69 0.0 4.0 0.00 0.00 0.00 60 1014.1
20260505100003 62 69 0.0 4.0 0.00 0.00 0.00 61 1014.1
20260505095703 62 100 0.0 4.0 0.00 0.00 0.00 58 1014.1
20260505095612 62 104 0.0 4.0 0.00 0.00 0.00 60 1014.1
20260505095314 61 101 0.0 4.0 0.00 0.00 0.00 60 1014.1
20260505094803 62 90 0.0 6.0 0.00 0.00 0.00 60 1014.0
20260505094503 62 90 0.0 6.0 0.00 0.00 0.00 59 1014.1
20260505094413 62 102 0.0 6.0 0.00 0.00 0.00 62 1014.1
20260505093903 62 86 0.0 3.0 0.00 0.00 0.00 61 1014.1
20260505093603 61 74 1.0 4.0 0.00 0.00 0.00 60 1014.1
20260505093513 61 81 1.0 4.0 0.00 0.00 0.00 59 1014.1
20260505093003 61 97 1.0 4.0 0.00 0.00 0.00 58 1014.2
20260505092703 61 165 0.0 4.0 0.00 0.00 0.00 59 1014.1
20260505092403 62 136 0.0 2.0 0.00 0.00 0.00 62 1014.2
20260505092103 62 143 0.0 1.0 0.00 0.00 0.00 61 1014.1
20260505091803 62 149 0.0 2.0 0.00 0.00 0.00 61 1014.1
20260505091503 62 149 0.0 2.0 0.00 0.00 0.00 61 1014.0
20260505091203 62 153 0.0 2.0 0.00 0.00 0.00 62 1014.0
20260505090903 62 158 0.0 2.0 0.00 0.00 0.00 61 1014.0
20260505090813 62 157 0.0 2.0 0.00 0.00 0.00 61 1014.0
20260505090303 63 152 0.0 2.0 0.00 0.00 0.00 60 1014.0
20260505090005 63 142 0.0 2.0 0.00 0.00 0.00 61 1014.1
20260505085703 63 142 0.0 2.0 0.00 0.00 0.00 62 1014.0
20260505085614 63 142 0.0 2.0 0.00 0.00 0.00 62 1014.0
20260505085103 63 139 0.0 6.0 0.00 0.00 0.00 62 1014.0
20260505084803 62 118 0.0 6.0 0.00 0.00 0.00 60 1014.1
20260505084503 62 341 0.0 4.0 0.00 0.00 0.00 64 1014.2
20260505084203 62 335 0.0 3.0 0.00 0.00 0.00 59 1014.3
20260505083903 62 346 0.0 2.0 0.00 0.00 0.00 62 1014.2
20260505083812 62 345 0.0 2.0 0.00 0.00 0.00 61 1014.2
20260505083303 62 331 0.0 2.0 0.00 0.00 0.00 62 1014.2
20260505083003 62 326 0.0 2.0 0.00 0.00 0.00 61 1014.2
20260505082703 62 309 0.0 2.0 0.00 0.00 0.00 63 1014.1
20260505082403 61 46 0.0 1.0 0.00 0.00 0.00 61 1014.1
20260505082103 61 29 0.0 1.0 0.00 0.00 0.00 63 1014.2
20260505081803 60 31 0.0 4.0 0.00 0.00 0.00 65 1014.2
20260505081503 60 21 0.0 4.0 0.00 0.00 0.00 66 1014.2
20260505081203 60 29 0.0 4.0 0.00 0.00 0.00 65 1014.4
20260505080904 59 32 0.0 2.0 0.00 0.00 0.00 67 1014.4
20260505080603 59 340 0.0 2.0 0.00 0.00 0.00 72 1014.4
20260505080303 58 324 0.0 2.0 0.00 0.00 0.00 70 1014.4
20260505080003 57 295 0.0 2.0 0.00 0.00 0.00 74 1014.6
20260505075914 57 294 0.0 2.0 0.00 0.00 0.00 72 1014.6
20260505075403 56 297 0.0 2.0 0.00 0.00 0.00 71 1014.5
20260505075103 55 299 0.0 1.0 0.00 0.00 0.00 76 1014.5
20260505074803 55 299 0.0 1.0 0.00 0.00 0.00 73 1014.5
20260505074503 55 305 0.0 1.0 0.00 0.00 0.00 76 1014.5
20260505074203 54 303 0.0 1.0 0.00 0.00 0.00 77 1014.5
20260505074112 54 303 0.0 1.0 0.00 0.00 0.00 77 1014.4
20260505073603 54 303 0.0 1.0 0.00 0.00 0.00 79 1014.5
20260505073303 53 296 0.0 1.0 0.00 0.00 0.00 79 1014.4
20260505073004 53 295 0.0 1.0 0.00 0.00 0.00 78 1014.4
20260505072703 53 295 0.0 1.0 0.00 0.00 0.00 76 1014.4
20260505072403 53 0 0.0 0.0 0.00 0.00 0.00 80 1014.3
20260505072103 52 0 0.0 0.0 0.00 0.00 0.00 78 1014.4
20260505071803 52 0 0.0 0.0 0.00 0.00 0.00 81 1014.3
20260505071503 52 0 0.0 0.0 0.00 0.00 0.00 82 1014.4
20260505071203 52 326 0.0 1.0 0.00 0.00 0.00 82 1014.4
20260505070903 51 326 0.0 1.0 0.00 0.00 0.00 82 1014.4
20260505070603 51 328 0.0 1.0 0.00 0.00 0.00 82 1014.4
20260505070303 51 330 0.0 1.0 0.00 0.00 0.00 83 1014.4
20260505070003 50 322 0.0 1.0 0.00 0.00 0.00 82 1014.5
20260505065703 50 320 0.0 1.0 0.00 0.00 0.00 84 1014.5
20260505065403 50 320 0.0 1.0 0.00 0.00 0.00 84 1014.4
20260505065103 50 0 0.0 0.0 0.00 0.00 0.00 86 1014.5
20260505065012 50 0 0.0 0.0 0.00 0.00 0.00 86 1014.5
20260505064503 50 0 0.0 0.0 0.00 0.00 0.00 87 1014.5
20260505064203 49 0 0.0 0.0 0.00 0.00 0.00 88 1014.5
20260505064114 50 0 0.0 0.0 0.00 0.00 0.00 88 1014.5
20260505063814 49 0 0.0 0.0 0.00 0.00 0.00 88 1014.6
20260505063513 49 0 0.0 0.0 0.00 0.00 0.00 88 1014.6
20260505063003 49 0 0.0 0.0 0.00 0.00 0.00 88 1014.5
20260505062703 49 0 0.0 0.0 0.00 0.00 0.00 88 1014.6
20260505062403 49 0 0.0 0.0 0.00 0.00 0.00 88 1014.6
20260505062313 49 0 0.0 0.0 0.00 0.00 0.00 88 1014.6
20260505061803 48 0 0.0 0.0 0.00 0.00 0.00 88 1014.5
20260505061503 48 0 0.0 0.0 0.00 0.00 0.00 88 1014.5
20260505061203 48 0 0.0 0.0 0.00 0.00 0.00 88 1014.4
20260505060903 48 0 0.0 0.0 0.00 0.00 0.00 87 1014.5
20260505060603 48 0 0.0 0.0 0.00 0.00 0.00 87 1014.5
20260505060304 48 0 0.0 0.0 0.00 0.00 0.00 87 1014.4
20260505060003 48 0 0.0 0.0 0.00 0.00 0.00 87 1014.4
20260505055703 48 0 0.0 0.0 0.00 0.00 0.00 87 1014.4
20260505055404 48 0 0.0 0.0 0.00 0.00 0.00 88 1014.4
20260505055103 48 0 0.0 0.0 0.00 0.00 0.00 87 1014.4
20260505054804 48 0 0.0 0.0 0.00 0.00 0.00 87 1014.4
20260505054503 48 0 0.0 0.0 0.00 0.00 0.00 87 1014.4
20260505054414 48 0 0.0 0.0 0.00 0.00 0.00 87 1014.4
20260505053903 48 0 0.0 0.0 0.00 0.00 0.00 87 1014.4
20260505053813 48 0 0.0 0.0 0.00 0.00 0.00 87 1014.4
20260505053303 48 0 0.0 0.0 0.00 0.00 0.00 87 1014.5
20260505053003 48 0 0.0 0.0 0.00 0.00 0.00 87 1014.4
20260505052703 48 0 0.0 0.0 0.00 0.00 0.00 86 1014.4
20260505052403 48 0 0.0 0.0 0.00 0.00 0.00 86 1014.5
20260505052103 48 0 0.0 0.0 0.00 0.00 0.00 86 1014.3
20260505051804 48 0 0.0 0.0 0.00 0.00 0.00 87 1014.3
20260505051504 48 0 0.0 0.0 0.00 0.00 0.00 87 1014.3
20260505051203 48 0 0.0 0.0 0.00 0.00 0.00 87 1014.3
20260505050905 48 0 0.0 0.0 0.00 0.00 0.00 87 1014.3
20260505050603 48 0 0.0 0.0 0.00 0.00 0.00 87 1014.3
20260505050305 47 0 0.0 0.0 0.00 0.00 0.00 87 1014.3
20260505041503 47 0 0.0 0.0 0.00 0.00 0.00 89 1014.0
20260505041203 47 0 0.0 0.0 0.00 0.00 0.00 89 1014.0
20260505040903 47 0 0.0 0.0 0.00 0.00 0.00 89 1013.9
20260505040603 47 0 0.0 0.0 0.00 0.00 0.00 90 1014.0
20260505040303 47 0 0.0 0.0 0.00 0.00 0.00 90 1014.1
20260505040005 47 0 0.0 0.0 0.00 0.00 0.00 90 1014.1
20260505035912 47 0 0.0 0.0 0.00 0.00 0.00 90 1014.1
20260505035403 47 303 0.0 1.0 0.00 0.00 0.00 91 1014.1
20260505035103 47 303 0.0 1.0 0.00 0.00 0.00 91 1014.0
20260505034803 47 0 0.0 0.0 0.00 0.00 0.00 91 1013.9
20260505034503 47 0 0.0 0.0 0.00 0.00 0.00 91 1013.8
20260505034203 47 0 0.0 0.0 0.00 0.00 0.00 92 1013.9
20260505033903 47 0 0.0 0.0 0.00 0.00 0.00 92 1013.9
20260505033603 47 0 0.0 0.0 0.00 0.00 0.00 92 1014.0
20260505033303 47 0 0.0 0.0 0.00 0.00 0.00 92 1014.0
20260505033003 47 0 0.0 0.0 0.00 0.00 0.00 92 1013.9
20260505032703 47 0 0.0 0.0 0.00 0.00 0.00 92 1014.1
20260505032404 47 0 0.0 0.0 0.00 0.00 0.00 92 1014.1
20260505032103 47 0 0.0 0.0 0.00 0.00 0.00 92 1014.2
20260505031803 47 0 0.0 0.0 0.00 0.00 0.00 92 1014.1
20260505031504 47 0 0.0 0.0 0.00 0.00 0.00 92 1014.2
20260505031413 47 0 0.0 0.0 0.00 0.00 0.00 92 1014.2
20260505030903 47 0 0.0 0.0 0.00 0.00 0.00 92 1014.3
20260505030603 46 0 0.0 0.0 0.00 0.00 0.00 92 1014.3
20260505030303 47 0 0.0 0.0 0.00 0.00 0.00 92 1014.3
20260505030003 47 0 0.0 0.0 0.00 0.00 0.00 93 1014.3
20260505025914 47 0 0.0 0.0 0.00 0.00 0.00 93 1014.3
20260505025404 47 0 0.0 0.0 0.00 0.00 0.00 93 1014.2
20260505025103 47 0 0.0 0.0 0.00 0.00 0.00 93 1014.1
20260505024804 47 0 0.0 0.0 0.00 0.00 0.00 93 1014.1
20260505024503 47 0 0.0 0.0 0.00 0.00 0.00 93 1014.1
20260505024413 47 0 0.0 0.0 0.00 0.00 0.00 93 1014.1
20260505023903 47 0 0.0 0.0 0.00 0.00 0.00 93 1014.1
20260505023603 47 0 0.0 0.0 0.00 0.00 0.00 93 1014.2
20260505023303 47 0 0.0 0.0 0.00 0.00 0.00 93 1014.2
20260505023003 47 0 0.0 0.0 0.00 0.00 0.00 93 1014.2
20260505022703 47 0 0.0 0.0 0.00 0.00 0.00 93 1014.2
20260505022403 47 0 0.0 0.0 0.00 0.00 0.00 92 1014.2
20260505022103 47 0 0.0 0.0 0.00 0.00 0.00 92 1014.2
20260505021803 47 0 0.0 0.0 0.00 0.00 0.00 92 1014.3
20260505021504 47 0 0.0 0.0 0.00 0.00 0.00 92 1014.4
20260505021203 47 0 0.0 0.0 0.00 0.00 0.00 92 1014.4
20260505020903 47 0 0.0 0.0 0.00 0.00 0.00 92 1014.3
20260505020603 47 0 0.0 0.0 0.00 0.00 0.00 92 1014.4
20260505020303 47 0 0.0 0.0 0.00 0.00 0.00 92 1014.4
20260505020003 47 0 0.0 0.0 0.00 0.00 0.00 92 1014.3
20260505015703 48 0 0.0 0.0 0.00 0.00 0.00 92 1014.3
20260505015403 48 0 0.0 0.0 0.00 0.00 0.00 92 1014.4
20260505015103 48 0 0.0 0.0 0.00 0.00 0.00 92 1014.5
20260505014803 48 0 0.0 0.0 0.00 0.00 0.00 92 1014.5
20260505014503 48 0 0.0 0.0 0.00 0.00 0.00 92 1014.5
20260505014203 48 0 0.0 0.0 0.00 0.00 0.00 92 1014.5
20260505013903 48 0 0.0 0.0 0.00 0.00 0.00 92 1014.6
20260505013814 48 303 0.0 1.0 0.00 0.00 0.00 92 1014.6
20260505013514 48 303 0.0 1.0 0.00 0.00 0.00 92 1014.6
20260505013213 48 303 0.0 1.0 0.00 0.00 0.00 92 1014.6
20260505012703 48 0 0.0 0.0 0.00 0.00 0.00 92 1014.6
20260505012404 48 0 0.0 0.0 0.00 0.00 0.00 92 1014.6
20260505012103 48 0 0.0 0.0 0.00 0.00 0.00 92 1014.6
20260505011803 47 0 0.0 0.0 0.00 0.00 0.00 92 1014.6
20260505011714 47 0 0.0 0.0 0.00 0.00 0.00 92 1014.7
20260505011203 47 0 0.0 0.0 0.00 0.00 0.00 92 1014.6
20260505011114 47 0 0.0 0.0 0.00 0.00 0.00 92 1014.6
20260505010603 47 0 0.0 0.0 0.00 0.00 0.00 92 1014.6
20260505010303 47 0 0.0 0.0 0.00 0.00 0.00 92 1014.6
20260505010003 47 0 0.0 0.0 0.00 0.00 0.00 92 1014.7
20260505005703 47 303 0.0 1.0 0.00 0.00 0.00 92 1014.7
20260505005403 47 303 0.0 1.0 0.00 0.00 0.00 92 1014.7
20260505005103 47 303 0.0 1.0 0.00 0.00 0.00 92 1014.6
20260505004803 48 303 0.0 1.0 0.00 0.00 0.00 92 1014.6
20260505004503 48 303 0.0 1.0 0.00 0.00 0.00 92 1014.7
20260505004203 48 0 0.0 0.0 0.00 0.00 0.00 92 1014.8
20260505003903 48 0 0.0 0.0 0.00 0.00 0.00 92 1014.8
20260505003603 48 0 0.0 0.0 0.00 0.00 0.00 92 1014.7
20260505003513 48 0 0.0 0.0 0.00 0.00 0.00 92 1014.7
20260505003003 48 0 0.0 0.0 0.00 0.00 0.00 92 1014.8
20260505002703 48 0 0.0 0.0 0.00 0.00 0.00 92 1014.8
20260505002403 48 303 0.0 1.0 0.00 0.00 0.00 92 1014.9
20260505002103 48 303 0.0 1.0 0.00 0.00 0.00 91 1014.9
20260505001803 48 303 0.0 1.0 0.00 0.00 0.00 91 1014.9
20260505001714 48 303 0.0 1.0 0.00 0.00 0.00 91 1014.9
20260505001204 48 303 0.0 1.0 0.00 0.00 0.00 91 1015.0
20260505001116 48 303 0.0 1.0 0.00 0.00 0.00 91 1015.0
20260505000603 48 299 0.0 1.0 0.00 0.00 0.00 91 1014.9
20260505000303 48 296 0.0 1.0 0.00 0.00 0.00 91 1015.0
20260505000003 48 296 0.0 1.0 0.00 0.00 0.00 91 1015.0
20260504235703 48 296 0.0 1.0 0.00 0.00 0.00 91 1015.0
20260504235403 48 296 0.0 1.0 0.00 0.00 0.00 91 1015.0
20260504235104 49 296 0.0 1.0 0.00 0.00 0.00 91 1015.0
20260504234803 49 296 0.0 1.0 0.00 0.00 0.00 91 1015.0
20260504234503 49 296 0.0 1.0 0.00 0.00 0.00 91 1015.0
20260504234203 49 0 0.0 0.0 0.00 0.00 0.00 91 1014.9
20260504233903 49 0 0.0 0.0 0.00 0.00 0.00 91 1014.9
20260504233603 49 0 0.0 0.0 0.00 0.00 0.00 91 1014.9
20260504233303 49 0 0.0 0.0 0.00 0.00 0.00 91 1014.9
20260504233003 49 0 0.0 0.0 0.00 0.00 0.00 91 1014.9
20260504232703 49 296 0.0 1.0 0.00 0.00 0.00 90 1014.9
20260504232403 49 296 0.0 1.0 0.00 0.00 0.00 90 1014.9
20260504232314 49 296 0.0 1.0 0.00 0.00 0.00 90 1014.9
20260504231803 49 296 0.0 1.0 0.00 0.00 0.00 90 1014.9
20260504231503 49 296 0.0 1.0 0.00 0.00 0.00 90 1014.8
20260504231413 49 0 0.0 0.0 0.00 0.00 0.00 90 1014.9
20260504230903 50 290 0.0 1.0 0.00 0.00 0.00 90 1014.9
20260504230603 50 290 0.0 1.0 0.00 0.00 0.00 90 1014.9
20260504230303 50 290 0.0 1.0 0.00 0.00 0.00 89 1014.9
20260504230004 50 290 0.0 1.0 0.00 0.00 0.00 89 1014.9
20260504225703 50 290 0.0 1.0 0.00 0.00 0.00 89 1014.9
20260504225403 50 290 0.0 1.0 0.00 0.00 0.00 88 1014.8
20260504225314 50 290 0.0 1.0 0.00 0.00 0.00 88 1014.8
20260504224805 50 290 0.0 1.0 0.00 0.00 0.00 88 1014.8
20260504224503 50 290 0.0 1.0 0.00 0.00 0.00 88 1014.8
20260504224203 51 290 0.0 1.0 0.00 0.00 0.00 88 1014.9
20260504223903 51 290 0.0 1.0 0.00 0.00 0.00 88 1015.0
20260504223603 51 295 0.0 1.0 0.00 0.00 0.00 88 1015.0
20260504223303 51 296 0.0 1.0 0.00 0.00 0.00 87 1015.0
20260504223004 51 301 0.0 1.0 0.00 0.00 0.00 87 1015.0
20260504222703 51 307 0.0 1.0 0.00 0.00 0.00 87 1015.0
20260504222403 51 307 0.0 1.0 0.00 0.00 0.00 87 1014.9
20260504222103 51 307 0.0 1.0 0.00 0.00 0.00 87 1015.0
20260504221803 51 307 0.0 1.0 0.00 0.00 0.00 87 1015.0
20260504221503 51 0 0.0 0.0 0.00 0.00 0.00 87 1014.9
20260504221203 51 0 0.0 0.0 0.00 0.00 0.00 88 1014.9
20260504220903 51 0 0.0 0.0 0.00 0.00 0.00 88 1015.0
20260504220603 52 0 0.0 0.0 0.00 0.00 0.00 88 1014.9
20260504220304 52 0 0.0 0.0 0.00 0.00 0.00 88 1014.9
20260504220214 52 0 0.0 0.0 0.00 0.00 0.00 88 1014.9
20260504215703 52 0 0.0 0.0 0.00 0.00 0.00 88 1014.9
20260504215403 52 0 0.0 0.0 0.00 0.00 0.00 88 1015.0
20260504215103 52 0 0.0 0.0 0.00 0.00 0.00 88 1015.0
20260504214803 52 0 0.0 0.0 0.00 0.00 0.00 88 1014.9
20260504214503 53 0 0.0 0.0 0.00 0.00 0.00 88 1014.9
20260504214203 53 0 0.0 0.0 0.00 0.00 0.00 88 1015.0
20260504213903 53 0 0.0 0.0 0.00 0.00 0.00 88 1015.0
20260504213812 53 0 0.0 0.0 0.00 0.00 0.00 88 1015.0
20260504213514 53 0 0.0 0.0 0.00 0.00 0.00 87 1015.0
20260504213003 53 0 0.0 0.0 0.00 0.00 0.00 87 1015.0
20260504212703 53 0 0.0 0.0 0.00 0.00 0.00 87 1015.1
20260504212403 53 0 0.0 0.0 0.00 0.00 0.00 87 1015.0
20260504212103 53 0 0.0 0.0 0.00 0.00 0.00 87 1015.0
20260504212013 53 0 0.0 0.0 0.00 0.00 0.00 87 1015.0
20260504211503 53 0 0.0 0.0 0.00 0.00 0.00 87 1015.0
20260504211203 53 0 0.0 0.0 0.00 0.00 0.00 86 1014.9
20260504211112 53 0 0.0 0.0 0.00 0.00 0.00 86 1015.0
20260504210603 53 0 0.0 0.0 0.00 0.00 0.00 86 1014.9
20260504210303 53 0 0.0 0.0 0.00 0.00 0.00 86 1014.9
20260504210003 53 297 0.0 1.0 0.00 0.00 0.00 86 1014.9
20260504205703 53 297 0.0 1.0 0.00 0.00 0.00 86 1015.0
20260504205403 53 297 0.0 1.0 0.00 0.01 0.00 86 1014.9
20260504205103 53 297 0.0 1.0 0.00 0.01 0.00 86 1015.0
20260504204803 53 297 0.0 1.0 0.00 0.01 0.00 86 1014.9
20260504204503 53 0 0.0 0.0 0.00 0.01 0.00 86 1014.8
20260504204203 54 0 0.0 0.0 0.00 0.01 0.00 86 1014.9
20260504204112 54 0 0.0 0.0 0.00 0.01 0.00 86 1014.9
20260504203814 54 0 0.0 0.0 0.00 0.02 0.00 86 1014.9
20260504203304 54 0 0.0 0.0 0.00 0.03 0.00 86 1014.9
20260504203003 54 0 0.0 0.0 0.00 0.05 0.00 86 1014.8
20260504202703 54 0 0.0 0.0 0.00 0.06 0.00 86 1014.7
20260504202403 54 0 0.0 0.0 0.00 0.06 0.00 86 1014.7
20260504202103 54 0 0.0 0.0 0.00 0.07 0.00 86 1014.7
20260504201804 54 0 0.0 0.0 0.00 0.08 0.00 85 1014.8
20260504201503 54 0 0.0 0.0 0.00 0.09 0.00 85 1014.8
20260504201203 54 0 0.0 0.0 0.00 0.09 0.00 85 1014.7
20260504200903 54 0 0.0 0.0 0.00 0.10 0.00 84 1014.7
20260504200814 54 0 0.0 0.0 0.00 0.11 0.00 84 1014.7
20260504200303 54 0 0.0 0.0 0.00 0.13 0.00 84 1014.7
20260504200003 55 0 0.0 0.0 0.00 0.15 0.00 84 1014.6
20260504195703 55 66 0.0 2.0 0.00 0.17 0.00 84 1014.6
20260504195404 55 62 0.0 2.0 0.00 0.19 0.00 83 1014.5
20260504195103 55 62 0.0 2.0 0.00 0.23 0.00 83 1014.6
20260504194803 55 62 0.0 2.0 0.00 0.26 0.00 82 1014.5
20260504194503 55 56 0.0 2.0 0.00 0.31 0.00 83 1014.5
20260504194203 55 166 0.0 2.0 0.00 0.35 0.00 82 1014.4
20260504193903 55 165 0.0 2.0 0.00 0.38 0.00 82 1014.4
20260504193816 55 165 0.0 2.0 0.00 0.39 0.00 82 1014.4
20260504193513 55 165 0.0 2.0 0.00 0.43 0.00 82 1014.3
20260504193003 55 165 0.0 1.0 0.00 0.47 0.00 82 1014.2
20260504192915 55 130 0.0 1.0 0.00 0.48 0.00 82 1014.2
20260504192403 55 45 0.0 1.0 0.00 0.50 0.00 82 1014.2
20260504192103 55 45 0.0 1.0 0.00 0.52 0.00 82 1014.2
20260504191803 55 16 0.0 1.0 0.00 0.53 0.00 82 1014.1
20260504191503 55 351 0.0 1.0 0.00 0.54 0.00 82 1014.1
20260504191203 55 5 0.0 1.0 0.00 0.54 0.00 83 1014.1
20260504190903 55 338 0.0 1.0 0.00 0.54 0.00 83 1014.1
20260504190603 56 338 0.0 1.0 0.00 0.54 0.00 83 1014.1
20260504190303 56 338 0.0 1.0 0.00 0.54 0.00 82 1014.1
20260504190003 56 0 0.0 0.0 0.00 0.54 0.00 82 1014.1
20260504185703 56 0 0.0 0.0 0.00 0.54 0.00 82 1014.1
20260504185613 56 0 0.0 0.0 0.00 0.54 0.00 82 1014.1
20260504185104 56 0 0.0 0.0 0.00 0.54 0.00 82 1014.1
20260504184803 56 0 0.0 0.0 0.00 0.54 0.00 81 1014.1
20260504184503 56 0 0.0 0.0 0.00 0.54 0.00 81 1014.0
20260504184203 56 31 0.0 1.0 0.00 0.54 0.00 81 1014.0
20260504183903 56 33 0.0 1.0 0.00 0.54 0.00 81 1014.0
20260504183813 56 33 0.0 1.0 0.00 0.54 0.00 81 1014.1
20260504183303 56 35 0.0 1.0 0.00 0.54 0.00 81 1014.0
20260504183213 56 38 0.0 1.0 0.00 0.54 0.00 81 1014.0
20260504182703 56 43 0.0 1.0 0.00 0.54 0.00 81 1013.9
20260504182403 56 31 0.0 1.0 0.00 0.54 0.00 81 1013.8
20260504182103 56 31 0.0 1.0 0.00 0.54 0.00 82 1013.8
20260504182014 56 31 0.0 1.0 0.00 0.54 0.00 82 1013.9
20260504181503 56 0 0.0 0.0 0.00 0.54 0.00 81 1013.8
20260504181203 56 0 0.0 0.0 0.00 0.54 0.00 81 1013.8
20260504180904 56 0 0.0 0.0 0.00 0.54 0.00 81 1013.7
20260504180603 56 0 0.0 0.0 0.00 0.54 0.00 81 1013.7
20260504180303 56 0 0.0 0.0 0.00 0.54 0.00 81 1013.6
20260504180212 56 350 0.0 1.0 0.00 0.54 0.00 81 1013.7
20260504175703 56 350 0.0 1.0 0.00 0.54 0.00 81 1013.7
20260504175403 56 350 0.0 1.0 0.00 0.54 0.00 81 1013.6
20260504175103 56 350 0.0 1.0 0.00 0.54 0.00 81 1013.7
20260504175014 56 350 0.0 1.0 0.00 0.54 0.00 81 1013.7
20260504174503 56 28 0.0 1.0 0.00 0.54 0.00 81 1013.7
20260504174413 56 28 0.0 1.0 0.00 0.54 0.00 81 1013.7
20260504173904 57 39 0.0 1.0 0.00 0.54 0.00 81 1013.7
20260504173603 57 42 0.0 1.0 0.00 0.54 0.00 81 1013.7
20260504173303 57 48 0.0 1.0 0.00 0.54 0.00 81 1013.7
20260504173212 57 48 0.0 1.0 0.00 0.54 0.00 81 1013.6
20260504172703 57 61 0.0 1.0 0.00 0.54 0.00 80 1013.6
20260504172403 57 61 0.0 1.0 0.00 0.54 0.00 78 1013.6
20260504172103 57 0 0.0 0.0 0.00 0.54 0.00 78 1013.7
20260504171804 57 61 0.0 1.0 0.00 0.54 0.00 78 1013.6
20260504171503 57 67 0.0 2.0 0.00 0.54 0.00 79 1013.6
20260504171203 58 68 0.0 2.0 0.00 0.54 0.00 81 1013.7
20260504171113 58 70 0.0 2.0 0.00 0.54 0.00 81 1013.8